SCP
0 0 0 0 0 0 1 1 1 1 1 1 1 1 3 5 5 4 2 2 1 2 2 2 2 1 1 1 0 0 0 0 0 0 0 0 0 0 0 0 0 0 0
0 0 0 0 0 0 1 1 1 1 1 1 1 1 2 4 4 3 2 1 1 1 2 2 2 1 1 1 0 0 0 0 0 0 0 0 0 0 0 0 0 0 0
0 0 0 0 0 0 1 1 1 1 1 1 1 1 2 3 4 3 2 1 1 1 1 2 2 1 1 1 0 0 0 0 0 0 0 0 0 0 0 0 0 0 0
0 0 0 0 0 0 1 1 1 1 1 1 1 1 1 2 3 2 1 1 1 1 1 2 2 1 1 1 0 0 0 0 0 0 0 0 0 0 0 0 0 0 0
0 0 0 0 0 0 0 1 0 1 1 1 1 1 1 2 2 2 1 1 1 1 1 1 1 1 1 1 0 0 0 0 0 0 0 0 0 0 0 0 0 0 0
0 0 0 0 0 0 0 0 0 0 0 0 0 0 0 1 1 1 1 1 1 1 1 1 1 1 0 0 0 0 0 0 0 0 0 0 0 0 0 0 0 0 0
0 0 0 0 0 0 0 0 0 0 0 0 0 0 0 0 1 1 1 1 1 1 1 1 1 0 0 0 0 0 0 0 0 0 0 0 0 0 0 0 0 0 0
0 0 0 0 0 0 0 0 0 0 0 0 0 0 0 0 0 1 1 1 1 1 1 1 0 0 0 0 0 0 0 0 0 0 0 0 0 0 0 0 0 0 0
0 0 0 0 0 0 0 0 0 0 0 0 0 0 0 0 0 0 0 1 1 0 0 0 0 0 0 0 0 0 0 0 0 0 0 0 0 0 0 0 0 0 0
0 0 0 0 0 0 0 0 0 0 0 0 0 0 0 1 1 0 1 1 0 0 0 0 0 0 0 1 0 0 0 0 0 0 0 0 0 0 0 0 0 0 0
0 0 0 0 0 0 0 0 0 0 0 0 0 0 0 1 1 0 0 0 0 0 0 0 0 0 0 1 0 0 0 0 0 0 0 0 0 0 0 0 0 0 0
0 0 0 0 0 0 0 0 0 0 0 0 0 0 0 1 0 0 0 0 0 1 0 0 0 0 0 1 0 0 0 0 0 0 0 0 0 0 0 0 0 0 0
0 0 0 0 0 0 0 0 0 0 0 0 0 0 0 0 0 0 0 0 0 0 0 0 0 0 1 1 0 0 0 0 0 0 0 0 0 0 0 0 0 0 0
0 0 0 0 0 0 0 0 0 0 0 0 0 0 0 0 0 0 0 0 0 0 0 0 0 0 1 1 0 0 0 0 0 0 0 0 0 0 0 0 0 0 0
0 0 0 0 0 0 0 0 0 0 0 0 0 0 0 0 0 0 0 0 0 0 0 0 0 0 1 1 0 0 0 0 0 0 0 0 0 0 0 0 0 0 0
0 0 0 0 0 0 0 0 0 0 0 0 0 0 0 0 0 0 0 0 0 0 0 0 0 0 1 0 0 0 0 0 0 0 0 0 0 0 0 0 0 0 0
0 0 0 0 0 0 0 0 0 0 0 0 0 0 0 0 0 0 0 0 0 0 0 0 0 0 0 0 0 0 0 0 0 0 0 0 0 0 0 0 0 0 0
0 0 0 0 0 0 0 0 0 0 0 0 0 0 0 0 0 0 0 0 0 0 0 0 0 0 0 0 0 0 0 0 0 0 0 0 0 0 0 0 0 0 0
0 0 0 0 0 0 0 0 0 0 0 0 0 0 0 0 0 0 0 0 0 0 0 0 0 0 0 0 0 0 0 0 0 0 0 0 0 0 0 0 0 0 0
0 0 0 0 0 0 0 0 0 0 0 0 0 0 0 0 0 0 0 0 0 0 0 0 0 0 0 0 0 0 0 0 0 0 0 0 0 0 0 0 0 0 0
0 0 0 0 0 0 0 0 0 0 0 0 0 0 0 0 0 0 0 0 0 0 0 0 0 0 0 0 0 0 0 0 0 0 0 0 0 0 0 0 0 0 0
0 0 0 0 0 0 0 0 0 0 0 0 0 0 0 0 0 0 0 0 0 0 0 0 0 0 0 0 0 0 0 0 0 0 0 0 0 0 0 0 0 0 0
0 0 0 0 0 0 0 0 0 0 0 0 0 0 0 0 0 0 0 0 0 0 0 0 0 0 0 0 0 0 0 0 0 0 0 0 0 0 0 0 0 0 0
0 0 0 0 0 0 0 0 0 0 0 0 0 0 0 0 0 0 0 0 0 0 0 0 0 0 0 0 0 0 0 0 0 0 0 0 0 0 0 0 0 0 0
0 0 0 0 0 0 0 0 0 0 0 0 0 0 0 0 0 0 0 0 0 0 0 0 0 0 0 0 0 0 0 0 0 0 0 0 0 0 0 0 0 0 0
0 0 0 0 0 0 0 0 0 0 0 0 0 0 0 0 0 0 0 0 0 0 0 0 0 0 0 0 0 0 0 0 0 0 0 0 0 0 0 0 0 0 0
Wind_Speed
8 6 6 6 5 5 7 7 7 7 6 4 4 4 5 5 4 5 7 8 8 9 8 7 7 8 8 8 8 6 6 4 4 4 2 0 2 3 4 4 4 5 5
7 6 5 4 4 5 6 7 7 7 7 6 5 4 4 4 4 5 6 8 8 9 8 9 8 9 7 9 9 7 5 4 6 5 4 1 2 3 4 3 4 5 3
7 7 5 4 4 5 6 6 7 8 7 6 3 3 2 2 3 4 5 7 8 9 9 10 9 9 9 9 10 10 9 7 5 5 6 5 5 2 2 3 4 4 4
6 6 5 5 5 6 5 5 6 6 6 6 6 6 6 5 6 5 5 6 8 9 9 9 10 10 9 9 10 10 8 9 8 5 3 3 4 4 1 1 2 3 4
5 6 5 5 5 5 5 5 5 5 5 6 8 7 7 6 4 4 5 6 7 8 9 8 10 11 9 10 10 9 9 8 8 7 4 3 2 2 3 3 2 2 3
5 6 4 4 4 4 4 4 4 4 4 5 6 7 8 7 6 6 6 6 5 6 9 9 9 10 9 10 10 10 11 9 9 7 6 5 5 5 4 4 4 3 3
5 5 5 4 3 3 4 4 4 4 4 4 6 7 8 8 9 8 7 6 5 6 8 9 9 9 9 9 9 10 11 11 11 9 7 6 5 4 4 4 3 2 2
4 5 5 4 3 3 4 3 3 4 4 4 5 6 7 6 6 7 7 7 7 7 8 9 9 10 10 9 9 9 10 10 10 10 9 6 5 4 4 5 4 2 2
5 5 5 5 4 4 4 3 3 4 4 4 3 5 6 6 6 7 7 6 6 6 8 9 9 10 10 10 10 8 10 10 10 9 9 7 5 5 4 4 5 5 4
6 5 5 5 5 4 4 4 3 4 4 3 3 4 5 6 5 5 6 7 7 6 8 9 10 10 10 10 10 8 9 10 9 7 8 8 6 5 5 5 4 4 5
5 5 5 5 5 4 3 3 3 3 3 3 4 4 4 4 4 5 6 6 6 6 7 8 9 10 11 10 10 9 10 11 10 9 9 9 7 6 5 5 4 4 4
5 4 5 5 5 5 4 3 3 3 3 3 4 4 3 3 4 4 5 5 6 6 6 6 8 9 10 11 11 11 10 11 11 10 10 9 7 8 6 5 6 5 5
5 5 4 4 4 5 4 4 3 4 4 3 4 3 3 3 4 5 4 4 5 5 5 6 6 7 8 9 9 10 10 10 10 10 10 10 9 9 6 7 6 5 4
5 5 5 5 5 5 4 4 4 4 4 4 4 3 4 4 4 4 3 4 5 5 5 5 6 6 7 8 9 9 9 8 8 9 9 9 10 10 9 7 7 5 4
5 5 5 4 4 4 5 4 4 4 3 3 3 4 4 4 4 4 2 2 3 4 4 4 5 6 6 7 8 9 8 8 7 7 7 8 9 10 9 7 7 6 5
6 6 5 5 5 5 5 5 4 4 3 3 4 4 4 4 4 3 2 1 2 2 3 4 4 6 5 7 10 9 8 7 8 7 7 7 8 9 10 10 9 9 7
6 6 5 4 5 5 5 4 4 4 3 4 5 5 4 4 4 4 2 1 2 2 2 3 3 4 5 8 9 10 8 7 7 7 7 5 6 8 7 8 8 8 8
5 5 4 5 5 4 4 4 4 4 4 4 5 5 5 4 4 3 2 2 1 1 2 2 3 3 5 7 7 8 7 6 6 6 7 7 7 7 8 7 5 4 4
5 5 4 5 5 5 5 4 4 4 4 5 5 5 5 5 4 4 3 2 2 2 2 2 3 3 5 6 6 6 5 5 6 5 6 7 7 10 11 8 7 5 3
4 4 4 4 4 5 4 3 4 4 5 5 6 5 5 5 4 4 4 3 2 2 2 2 2 3 4 6 7 5 4 4 4 4 5 8 9 11 12 9 8 7 5
4 4 3 3 4 4 3 3 3 4 5 5 5 5 5 5 4 3 3 3 2 2 2 2 2 3 3 5 6 6 4 4 4 4 4 5 9 11 11 9 7 8 7
5 4 4 4 4 3 2 3 4 5 5 4 5 5 5 4 3 3 4 3 2 1 1 1 1 2 3 4 5 6 5 4 4 3 3 4 8 9 10 7 8 10 9
5 4 4 5 5 3 2 4 5 4 4 4 5 5 5 4 3 3 3 3 1 0 1 1 1 1 2 3 4 5 6 5 3 2 4 5 8 8 7 9 11 9 6
5 4 3 4 5 4 3 4 5 3 3 4 4 4 4 4 3 2 2 2 1 1 1 1 1 2 1 2 2 3 3 4 3 3 4 5 6 5 6 7 6 4 4
5 4 4 5 6 5 4 4 4 3 3 4 4 4 4 3 3 3 2 2 1 2 2 2 2 3 3 3 2 2 2 3 3 3 3 3 4 4 3 3 3 4 4
5 4 5 5 5 5 5 4 3 2 2 3 3 3 3 3 2 2 3 2 1 3 4 3 3 2 3 3 3 3 3 3 5 4 4 3 4 4 4 4 3 3 4
Wind_Direction
269 274 272 271 264 252 244 236 231 224 204 197 205 216 214 206 205 208 206 202 199 198 200 199 191 190 191 192 184 181 175 178 160 140 134 317 233 220 219 211 210 217 215
295 292 282 270 269 256 248 250 239 224 209 206 209 225 210 204 209 209 208 208 204 200 204 199 195 196 192 190 188 177 172 176 172 158 143 165 291 257 222 210 213 219 209
275 282 280 265 274 270 255 254 245 224 214 208 207 225 202 193 206 211 213 214 209 205 206 204 199 197 193 194 194 186 179 181 185 180 160 165 203 226 241 216 215 211 209
275 275 271 268 272 269 264 260 247 226 218 205 203 207 212 219 222 217 219 221 215 210 208 207 203 200 197 196 195 193 188 179 182 191 199 173 154 159 199 256 227 216 216
277 272 262 259 263 271 269 265 254 237 228 216 207 210 218 224 220 213 216 225 221 213 208 210 207 202 199 198 195 192 191 188 183 180 171 163 151 148 160 215 229 239 227
283 279 270 272 278 288 272 258 255 255 247 229 215 216 219 216 214 220 218 222 222 217 209 207 209 202 199 198 196 195 193 193 186 182 177 168 166 175 171 199 207 223 234
284 287 291 286 284 290 285 272 253 255 256 248 233 222 222 217 214 218 219 222 224 223 212 206 209 204 200 199 195 196 197 195 190 190 192 189 186 165 161 168 191 216 242
303 297 286 282 274 281 285 280 267 262 257 252 249 233 229 224 221 221 223 222 224 221 211 207 210 209 199 197 195 198 198 196 196 196 192 189 189 179 176 169 171 193 246
305 304 306 306 295 281 276 274 268 276 270 256 253 252 241 233 230 227 226 227 226 223 210 207 210 209 199 196 193 200 199 194 196 195 194 193 192 185 188 184 180 180 211
313 312 314 315 302 283 274 273 264 265 270 280 270 274 255 238 235 231 233 231 224 220 215 210 210 205 198 196 196 198 196 193 193 190 191 199 195 189 189 189 192 194 196
305 305 309 303 301 304 288 281 285 286 290 282 278 273 274 268 248 238 238 229 217 213 217 214 207 205 200 196 196 201 189 193 193 188 193 202 193 192 190 184 188 198 191
301 305 304 307 310 304 299 295 292 292 293 289 285 283 277 279 266 257 252 227 217 213 211 212 211 209 202 196 197 196 189 192 194 191 194 199 192 193 187 186 192 199 197
314 315 313 312 312 307 309 306 299 292 299 299 292 289 287 287 283 271 251 225 212 210 209 208 213 212 203 195 198 190 187 190 193 192 194 196 189 195 191 191 195 198 193
309 311 311 313 313 312 314 314 313 308 312 315 307 305 305 293 288 284 257 230 210 206 210 215 214 211 202 197 192 185 183 188 190 194 196 196 193 194 192 193 195 188 181
306 306 301 300 309 319 320 314 312 317 319 319 319 314 312 309 306 307 276 249 224 216 214 219 217 203 199 194 185 182 182 185 188 192 197 198 194 191 190 187 186 182 183
299 299 301 310 316 316 315 314 316 318 317 318 315 316 322 321 313 311 296 280 245 227 222 213 214 206 202 187 187 186 182 184 186 192 195 194 189 187 187 185 183 182 183
288 294 297 298 299 301 302 303 307 317 322 322 322 325 327 322 317 314 308 298 259 231 226 221 214 214 193 182 182 185 185 186 189 191 189 190 187 182 181 182 183 188 190
286 291 294 296 296 297 302 306 315 324 324 326 326 326 329 323 319 315 302 297 279 222 224 234 231 212 187 174 176 182 188 188 189 192 190 188 185 182 175 172 175 186 193
275 280 282 287 299 304 305 312 318 325 326 324 322 321 324 322 317 313 303 290 290 266 237 240 222 206 185 173 171 172 179 182 185 188 188 184 185 181 171 168 170 167 160
288 289 294 299 303 302 306 312 314 322 319 315 313 315 318 312 308 306 303 302 287 263 247 234 217 204 187 174 167 165 171 175 180 181 188 190 188 180 173 173 172 175 170
288 289 290 291 288 295 301 300 307 302 299 307 313 315 317 311 305 312 313 311 293 275 235 219 222 194 185 173 171 171 171 173 176 182 188 191 183 179 176 178 181 177 158
288 284 283 286 288 290 289 293 293 293 306 315 315 315 316 314 318 327 327 322 301 254 201 206 227 178 175 178 175 177 178 171 173 183 184 182 178 175 174 173 161 150 143
279 280 276 288 295 288 269 273 284 298 312 317 314 313 317 316 321 327 327 325 304 196 227 208 216 188 171 171 175 173 173 170 166 173 180 176 171 162 161 156 152 149 144
277 278 277 285 292 294 285 273 283 297 303 306 311 317 321 325 328 326 316 309 297 278 251 232 219 196 177 164 156 155 153 148 136 133 140 138 140 136 136 141 144 145 148
277 272 264 267 276 287 288 284 285 295 303 306 312 317 322 326 328 326 310 298 278 270 258 241 225 199 196 199 185 164 166 162 157 144 137 133 131 128 128 130 132 133 133
273 271 268 269 276 285 286 288 287 282 289 303 307 307 317 317 317 321 336 323 298 316 310 290 267 258 226 207 199 185 170 158 156 144 151 151 149 150 153 150 144 140 138